| time (UTC) | temp F | wind direction | speed MPH | gust MPH | rain 1hr in | rain 24hr in | rain mn in | humidity % | barometer mb |
| 20260509172843 | 49 | 168 | 6.0 | 10.0 | 0.02 | 0.30 | 0.30 | 99 | 1009.2 |
| 20260509171841 | 49 | 224 | 10.0 | 13.0 | 0.00 | 0.30 | 0.30 | 99 | 1009.2 |
| 20260509170839 | 48 | 212 | 6.0 | 16.0 | 0.09 | 0.30 | 0.30 | 99 | 1009.1 |
| 20260509165835 | 48 | 228 | 8.0 | 12.0 | 0.05 | 0.28 | 0.28 | 99 | 1009.4 |
| 20260509164832 | 48 | 222 | 7.0 | 13.0 | 0.02 | 0.27 | 0.27 | 99 | 1009.4 |
| 20260509163831 | 48 | 117 | 2.0 | 7.0 | 0.02 | 0.27 | 0.27 | 99 | 1009.5 |
| 20260509162827 | 48 | 205 | 6.0 | 6.0 | 0.02 | 0.26 | 0.26 | 99 | 1009.7 |
| 20260509161822 | 48 | 229 | 4.0 | 6.0 | 0.02 | 0.26 | 0.26 | 99 | 1009.5 |
| 20260509160820 | 48 | 213 | 2.0 | 9.0 | 0.02 | 0.26 | 0.26 | 99 | 1009.5 |
| 20260509155817 | 48 | 204 | 3.0 | 10.0 | 0.00 | 0.25 | 0.25 | 99 | 1009.7 |
| 20260509154816 | 48 | 89 | 3.0 | 4.0 | 0.02 | 0.25 | 0.25 | 99 | 1009.6 |
| 20260509153816 | 48 | 240 | 3.0 | 5.0 | 0.00 | 0.25 | 0.25 | 99 | 1009.8 |
| 20260509152815 | 48 | 133 | 2.0 | 3.0 | 0.02 | 0.25 | 0.25 | 99 | 1009.8 |
| 20260509151815 | 48 | 173 | 2.0 | 4.0 | 0.02 | 0.24 | 0.24 | 99 | 1009.9 |
| 20260509150809 | 48 | 99 | 2.0 | 6.0 | 0.02 | 0.24 | 0.24 | 99 | 1009.8 |
| 20260509145809 | 48 | 240 | 2.0 | 4.0 | 0.02 | 0.23 | 0.23 | 99 | 1009.7 |
| 20260509144806 | 48 | 326 | 1.0 | 5.0 | 0.02 | 0.23 | 0.23 | 99 | 1010.0 |
| 20260509143800 | 48 | 147 | 2.0 | 6.0 | 0.02 | 0.22 | 0.22 | 99 | 1010.1 |
| 20260509142759 | 48 | 24 | 2.0 | 3.0 | 0.02 | 0.22 | 0.22 | 99 | 1010.3 |
| 20260509141756 | 48 | 127 | 2.0 | 6.0 | 0.02 | 0.22 | 0.22 | 99 | 1010.4 |
| 20260509140756 | 48 | 218 | 5.0 | 7.0 | 0.02 | 0.21 | 0.21 | 99 | 1010.4 |
| 20260509135751 | 48 | 247 | 3.0 | 10.0 | 0.02 | 0.21 | 0.21 | 99 | 1010.5 |
| 20260509134751 | 48 | 254 | 4.0 | 5.0 | 0.05 | 0.20 | 0.20 | 99 | 1010.4 |
| 20260509133746 | 48 | 206 | 6.0 | 7.0 | 0.02 | 0.20 | 0.20 | 99 | 1010.5 |
| 20260509132741 | 48 | 318 | 1.0 | 4.0 | 0.02 | 0.19 | 0.19 | 99 | 1010.4 |
| 20260509131736 | 48 | 328 | 1.0 | 3.0 | 0.00 | 0.19 | 0.19 | 99 | 1010.1 |
| 20260509130734 | 47 | 22 | 1.0 | 4.0 | 0.02 | 0.19 | 0.19 | 99 | 1010.1 |
| 20260509125733 | 47 | 40 | 2.0 | 3.0 | 0.00 | 0.18 | 0.18 | 99 | 1010.0 |
| 20260509124732 | 47 | 50 | 2.0 | 3.0 | 0.02 | 0.18 | 0.18 | 99 | 1010.1 |
| 20260509123727 | 47 | 29 | 2.0 | 4.0 | 0.00 | 0.18 | 0.18 | 99 | 1010.3 |
| 20260509122725 | 47 | 14 | 2.0 | 4.0 | 0.00 | 0.18 | 0.18 | 99 | 1010.4 |
| 20260509121724 | 46 | 33 | 3.0 | 4.0 | 0.02 | 0.18 | 0.18 | 99 | 1010.6 |
| 20260509120720 | 46 | 354 | 0.0 | 3.0 | 0.00 | 0.18 | 0.18 | 99 | 1010.5 |
| 20260509115721 | 46 | 17 | 1.0 | 3.0 | 0.00 | 0.18 | 0.18 | 99 | 1010.5 |
| 20260509114716 | 46 | 32 | 2.0 | 4.0 | 0.02 | 0.18 | 0.18 | 99 | 1010.8 |
| 20260509113713 | 46 | 347 | 2.0 | 3.0 | 0.00 | 0.17 | 0.17 | 99 | 1010.6 |
| 20260509112712 | 46 | 10 | 2.0 | 4.0 | 0.00 | 0.17 | 0.17 | 99 | 1010.7 |
| 20260509111712 | 46 | 10 | 3.0 | 3.0 | 0.00 | 0.17 | 0.17 | 99 | 1010.7 |
| 20260509110712 | 45 | 88 | 2.0 | 4.0 | 0.00 | 0.17 | 0.17 | 99 | 1010.5 |
| 20260509105707 | 45 | 34 | 1.0 | 4.0 | 0.00 | 0.17 | 0.17 | 99 | 1010.7 |
| 20260509104707 | 45 | 18 | 3.0 | 4.0 | 0.00 | 0.17 | 0.17 | 99 | 1010.5 |
| 20260509103701 | 45 | 11 | 1.0 | 3.0 | 0.00 | 0.17 | 0.17 | 99 | 1010.6 |
| 20260509102657 | 45 | 44 | 2.0 | 3.0 | 0.00 | 0.17 | 0.17 | 99 | 1010.7 |
| 20260509101655 | 45 | 4 | 2.0 | 4.0 | 0.00 | 0.17 | 0.17 | 99 | 1010.7 |
| 20260509100650 | 45 | 12 | 3.0 | 4.0 | 0.02 | 0.17 | 0.17 | 99 | 1010.7 |
| 20260509095649 | 45 | 7 | 3.0 | 4.0 | 0.02 | 0.17 | 0.17 | 99 | 1010.7 |
| 20260509094648 | 45 | 23 | 3.0 | 4.0 | 0.00 | 0.17 | 0.17 | 99 | 1010.4 |
| 20260509093644 | 45 | 63 | 2.0 | 3.0 | 0.00 | 0.17 | 0.17 | 99 | 1010.7 |
| 20260509092644 | 45 | 80 | 2.0 | 4.0 | 0.02 | 0.17 | 0.17 | 99 | 1010.8 |
| 20260509091641 | 45 | 35 | 2.0 | 3.0 | 0.07 | 0.16 | 0.16 | 99 | 1010.9 |
| 20260509090640 | 45 | 29 | 2.0 | 3.0 | 0.12 | 0.15 | 0.15 | 99 | 1010.8 |
| 20260509085641 | 45 | 330 | 1.0 | 3.0 | 0.00 | 0.13 | 0.13 | 99 | 1010.8 |
| 20260509084640 | 45 | 16 | 2.0 | 3.0 | 0.00 | 0.13 | 0.13 | 99 | 1010.7 |
| 20260509083640 | 45 | 33 | 0.0 | 2.0 | 0.00 | 0.13 | 0.13 | 99 | 1010.7 |
| 20260509082639 | 45 | 35 | 2.0 | 3.0 | 0.00 | 0.13 | 0.13 | 99 | 1010.9 |
| 20260509081639 | 45 | 5 | 1.0 | 3.0 | 0.00 | 0.13 | 0.13 | 99 | 1010.9 |
| 20260509080634 | 45 | 35 | 0.0 | 3.0 | 0.02 | 0.13 | 0.13 | 99 | 1011.0 |
| 20260509075630 | 45 | 61 | 2.0 | 3.0 | 0.02 | 0.13 | 0.13 | 99 | 1011.2 |
| 20260509074630 | 45 | 27 | 2.0 | 3.0 | 0.02 | 0.12 | 0.12 | 99 | 1011.4 |
| 20260509073629 | 45 | 10 | 2.0 | 3.0 | 0.05 | 0.12 | 0.12 | 99 | 1011.3 |
| 20260509072628 | 45 | 0 | 2.0 | 3.0 | 0.05 | 0.11 | 0.11 | 99 | 1011.5 |
| 20260509071627 | 45 | 7 | 2.0 | 3.0 | 0.05 | 0.10 | 0.10 | 99 | 1011.5 |
| 20260509070622 | 45 | 41 | 1.0 | 3.0 | 0.05 | 0.09 | 0.09 | 99 | 1011.7 |
| 20260509065619 | 45 | 91 | 2.0 | 3.0 | 0.02 | 0.08 | 0.08 | 99 | 1011.7 |
| 20260509064619 | 45 | 283 | 2.0 | 3.0 | 0.07 | 0.08 | 0.08 | 99 | 1012.0 |
| 20260509063619 | 45 | 247 | 2.0 | 3.0 | 0.05 | 0.07 | 0.07 | 99 | 1012.1 |
| 20260509062619 | 45 | 220 | 2.0 | 3.0 | 0.05 | 0.06 | 0.06 | 99 | 1011.9 |
| 20260509061619 | 45 | 93 | 1.0 | 4.0 | 0.05 | 0.05 | 0.05 | 99 | 1011.9 |
| 20260509060614 | 45 | 116 | 2.0 | 4.0 | 0.09 | 0.04 | 0.04 | 99 | 1011.9 |
| 20260509055611 | 45 | 154 | 2.0 | 3.0 | 0.07 | 0.03 | 0.03 | 99 | 1011.7 |
| 20260509054610 | 45 | 115 | 3.0 | 3.0 | 0.02 | 0.02 | 0.02 | 99 | 1011.9 |
| 20260509053606 | 45 | 99 | 2.0 | 3.0 | 0.02 | 0.02 | 0.02 | 99 | 1012.3 |
| 20260509052601 | 46 | 178 | 2.0 | 3.0 | 0.00 | 0.01 | 0.01 | 99 | 1012.3 |
| 20260509051556 | 46 | 107 | 0.0 | 2.0 | 0.02 | 0.01 | 0.01 | 99 | 1012.1 |
| 20260509050555 | 46 | 135 | 0.0 | 3.0 | 0.02 | 0.01 | 0.01 | 99 | 1012.1 |
| 20260509045550 | 46 | 112 | 1.0 | 2.0 | 0.00 | 0.00 | 0.00 | 99 | 1011.9 |
| 20260509044550 | 46 | 183 | 1.0 | 2.0 | 0.00 | 0.00 | 0.00 | 98 | 1011.8 |
| 20260509043549 | 46 | 180 | 1.0 | 3.0 | 0.00 | 0.00 | 0.00 | 98 | 1012.1 |
| 20260509042547 | 46 | 196 | 1.0 | 3.0 | 0.00 | 0.00 | 0.00 | 97 | 1011.7 |
| 20260509041546 | 46 | 203 | 2.0 | 5.0 | 0.00 | 0.00 | 0.00 | 97 | 1011.6 |
| 20260509040542 | 46 | 180 | 5.0 | 6.0 | 0.00 | 0.00 | 0.00 | 96 | 1011.9 |
| 20260509035541 | 46 | 192 | 2.0 | 5.0 | 0.00 | 0.10 | 0.10 | 96 | 1012.3 |
| 20260509034536 | 46 | 215 | 5.0 | 9.0 | 0.00 | 0.10 | 0.10 | 96 | 1012.3 |
| 20260509033535 | 45 | 163 | 2.0 | 2.0 | 0.00 | 0.10 | 0.10 | 97 | 1012.4 |
| 20260509032535 | 45 | 138 | 2.0 | 2.0 | 0.00 | 0.10 | 0.10 | 97 | 1012.0 |
| 20260509031535 | 45 | 169 | 2.0 | 3.0 | 0.00 | 0.10 | 0.10 | 96 | 1012.1 |
| 20260509030531 | 45 | 136 | 1.0 | 2.0 | 0.00 | 0.10 | 0.10 | 95 | 1012.0 |
| 20260509025529 | 46 | 212 | 2.0 | 4.0 | 0.00 | 0.10 | 0.10 | 94 | 1011.9 |
| 20260509024526 | 46 | 119 | 2.0 | 5.0 | 0.00 | 0.10 | 0.10 | 94 | 1012.1 |
| 20260509023526 | 46 | 179 | 3.0 | 4.0 | 0.00 | 0.10 | 0.10 | 94 | 1012.1 |
| 20260509022525 | 46 | 202 | 4.0 | 7.0 | 0.00 | 0.10 | 0.10 | 93 | 1012.1 |
| 20260509021520 | 46 | 204 | 3.0 | 4.0 | 0.00 | 0.10 | 0.10 | 94 | 1011.9 |
| 20260509020515 | 46 | 96 | 2.0 | 4.0 | 0.00 | 0.10 | 0.10 | 94 | 1012.0 |
| 20260509015511 | 46 | 152 | 2.0 | 3.0 | 0.00 | 0.10 | 0.10 | 94 | 1012.0 |
| 20260509014510 | 46 | 186 | 2.0 | 3.0 | 0.00 | 0.10 | 0.10 | 93 | 1012.0 |
| 20260509013509 | 46 | 152 | 2.0 | 4.0 | 0.00 | 0.10 | 0.10 | 93 | 1012.0 |
| 20260509012508 | 46 | 118 | 2.0 | 3.0 | 0.00 | 0.10 | 0.10 | 93 | 1012.1 |
| 20260509011502 | 46 | 134 | 4.0 | 4.0 | 0.00 | 0.10 | 0.10 | 92 | 1011.7 |
| 20260509010457 | 47 | 104 | 1.0 | 5.0 | 0.00 | 0.10 | 0.10 | 91 | 1011.9 |
| 20260509005452 | 47 | 179 | 4.0 | 5.0 | 0.00 | 0.10 | 0.10 | 91 | 1011.8 |
| 20260509004448 | 47 | 142 | 1.0 | 4.0 | 0.00 | 0.10 | 0.10 | 90 | 1011.5 |
| 20260509003444 | 47 | 200 | 3.0 | 5.0 | 0.00 | 0.10 | 0.10 | 90 | 1011.6 |
| 20260509002444 | 48 | 92 | 1.0 | 4.0 | 0.00 | 0.10 | 0.10 | 89 | 1011.3 |
| 20260509001443 | 48 | 113 | 1.0 | 2.0 | 0.00 | 0.10 | 0.10 | 88 | 1011.3 |
| 20260509000440 | 48 | 190 | 2.0 | 4.0 | 0.00 | 0.10 | 0.10 | 87 | 1011.1 |
| 20260508235438 | 49 | 167 | 2.0 | 3.0 | 0.00 | 0.10 | 0.10 | 85 | 1010.9 |
| 20260508234437 | 50 | 153 | 2.0 | 4.0 | 0.00 | 0.10 | 0.10 | 83 | 1010.9 |
| 20260508233434 | 50 | 131 | 2.0 | 9.0 | 0.00 | 0.10 | 0.10 | 81 | 1011.2 |
| 20260508232433 | 50 | 154 | 0.0 | 2.0 | 0.00 | 0.10 | 0.10 | 81 | 1011.0 |
| 20260508231433 | 50 | 157 | 1.0 | 4.0 | 0.00 | 0.10 | 0.10 | 81 | 1011.0 |
| 20260508230432 | 50 | 196 | 6.0 | 6.0 | 0.00 | 0.10 | 0.10 | 80 | 1011.0 |
| 20260508225432 | 51 | 133 | 1.0 | 3.0 | 0.00 | 0.10 | 0.10 | 80 | 1010.8 |
| 20260508224427 | 52 | 182 | 2.0 | 5.0 | 0.00 | 0.10 | 0.10 | 79 | 1010.6 |
| 20260508223422 | 53 | 84 | 3.0 | 3.0 | 0.00 | 0.10 | 0.10 | 77 | 1010.9 |
| 20260508222422 | 51 | 207 | 3.0 | 5.0 | 0.00 | 0.10 | 0.10 | 78 | 1010.7 |
| 20260508221420 | 51 | 184 | 4.0 | 6.0 | 0.00 | 0.10 | 0.10 | 77 | 1010.9 |
| 20260508220419 | 52 | 135 | 6.0 | 7.0 | 0.00 | 0.10 | 0.10 | 73 | 1010.7 |
| 20260508215418 | 52 | 137 | 1.0 | 5.0 | 0.00 | 0.10 | 0.10 | 78 | 1011.0 |
| 20260508214419 | 53 | 186 | 5.0 | 5.0 | 0.00 | 0.10 | 0.10 | 75 | 1010.9 |
| 20260508213418 | 52 | 154 | 2.0 | 5.0 | 0.00 | 0.10 | 0.10 | 72 | 1010.8 |
| 20260508212416 | 52 | 134 | 3.0 | 4.0 | 0.00 | 0.10 | 0.10 | 77 | 1011.1 |
| 20260508211413 | 51 | 136 | 2.0 | 5.0 | 0.00 | 0.10 | 0.10 | 79 | 1010.9 |
| 20260508210413 | 51 | 137 | 2.0 | 7.0 | 0.00 | 0.10 | 0.10 | 83 | 1011.2 |
| 20260508205413 | 49 | 153 | 2.0 | 6.0 | 0.00 | 0.10 | 0.10 | 87 | 1011.5 |
| 20260508204412 | 49 | 126 | 2.0 | 5.0 | 0.02 | 0.10 | 0.10 | 89 | 1011.6 |
| 20260508203410 | 48 | 216 | 2.0 | 3.0 | 0.02 | 0.09 | 0.09 | 86 | 1011.8 |
| 20260508202409 | 49 | 7 | 2.0 | 3.0 | 0.02 | 0.09 | 0.09 | 83 | 1011.8 |
| 20260508201408 | 50 | 301 | 0.0 | 1.0 | 0.00 | 0.09 | 0.09 | 78 | 1011.4 |
| 20260508200408 | 51 | 27 | 1.0 | 4.0 | 0.00 | 0.09 | 0.09 | 72 | 1011.2 |
| 20260508195406 | 51 | 57 | 3.0 | 5.0 | 0.02 | 0.09 | 0.09 | 70 | 1011.4 |
| 20260508194406 | 53 | 0 | 1.0 | 4.0 | 0.00 | 0.08 | 0.08 | 70 | 1011.1 |
| 20260508193405 | 55 | 60 | 5.0 | 6.0 | 0.00 | 0.08 | 0.08 | 67 | 1011.4 |
| 20260508192404 | 53 | 330 | 3.0 | 4.0 | 0.00 | 0.08 | 0.08 | 71 | 1011.5 |
| 20260508191359 | 50 | 311 | 1.0 | 3.0 | 0.00 | 0.08 | 0.08 | 72 | 1011.7 |
| 20260508190358 | 50 | 55 | 2.0 | 4.0 | 0.00 | 0.08 | 0.08 | 76 | 1011.8 |
| 20260508185358 | 51 | 327 | 4.0 | 9.0 | 0.00 | 0.08 | 0.08 | 77 | 1011.8 |
| 20260508184353 | 51 | 139 | 0.0 | 5.0 | 0.00 | 0.08 | 0.08 | 75 | 1011.7 |
| 20260508183351 | 50 | 348 | 4.0 | 6.0 | 0.00 | 0.08 | 0.08 | 81 | 1011.9 |
| 20260508182350 | 50 | 96 | 5.0 | 5.0 | 0.00 | 0.08 | 0.08 | 81 | 1012.0 |
| 20260508181349 | 50 | 36 | 3.0 | 8.0 | 0.00 | 0.08 | 0.08 | 85 | 1012.3 |
| 20260508180348 | 50 | 257 | 3.0 | 3.0 | 0.00 | 0.08 | 0.08 | 86 | 1012.0 |
| 20260508175347 | 47 | 338 | 4.0 | 8.0 | 0.02 | 0.08 | 0.08 | 90 | 1012.5 |
| 20260508174342 | 48 | 282 | 6.0 | 6.0 | 0.00 | 0.08 | 0.08 | 84 | 1012.4 |